Regional Weather Roundup
Issued by NWS

Home | Current Version | Previous Version | Text Only | Print | Product List | Glossary Off
Versions: 1 2 3 4 5 6 7 8 9 10 11 12 13 14 15 16 17 18 19 20 21 22 23 24 25 26 27 28 29 30 31 32 33 34 35 36 37 38 39 40 41 42 43 44 45 46 47 48 49 50

000
ASUS43 KOAX 030110
RWRNE

WEATHER ROUNDUP FOR NEBRASKA
NATIONAL WEATHER SERVICE OMAHA NE
800 PM CDT WED SEP 02 2015

NOTES: SATELLITE DATA IS BEING USED TO AUGMENT CLOUD COVER ABOVE
       12000 FEET.
       "FAIR" INDICATES FEW OR NO CLOUDS BELOW 12,000 FEET WITH NO
       SIGNIFICANT WEATHER AND/OR OBSTRUCTIONS TO VISIBILITY.

  * THESE STATIONS DO NOT REPORT WEATHER SUCH AS RAIN...SNOW OR FOG.

NEZ001>004-019>022-054>056-030200-
NEBRASKA PANHANDLE

CITY           SKY/WX    TMP DP  RH WIND       PRES   REMARKS
SCOTTSBLUFF    CLEAR     86  50  28 SE8       29.88S
ALLIANCE       CLEAR     85  45  24 S6        29.88R
CHADRON        CLEAR     85  49  28 S9        29.80R
KIMBALL        PTCLDY    78  50  37 SE7       29.95S
SIDNEY         CLEAR     83  42  23 S7        29.93S
$$

NEZ057>060-069>072-079>082-030200-
SOUTHWEST NEBRASKA

CITY           SKY/WX    TMP DP  RH WIND       PRES   REMARKS
NORTH PLATTE   CLEAR     79  67  66 E8        29.84R
IMPERIAL       PTCLDY    86  56  35 E8        29.86R
LEXINGTON      CLEAR     84  69  59 E7        29.83S
MCCOOK         CLEAR     89  57  33 E7        29.82R
OGALLALA       CLEAR     87  55  33 SE7       29.86S
$$

NEZ005>010-023>029-035>040-094-030200-
NORTH CENTRAL NEBRASKA

CITY           SKY/WX    TMP DP  RH WIND       PRES   REMARKS
VALENTINE      PTCLDY    88  51  28 S7        29.78S
AINSWORTH      PTCLDY    86  55  33 S10       29.81R
BROKEN BOW     CLEAR     84  65  52 SE5       29.85R
O`NEILL        PTCLDY    84  71  65 SE8       29.82R
ORD            CLEAR     87  66  49 SE8       29.82R
THEDFORD       CLEAR     89  58  35 S12       29.85S
$$

NEZ041-046>049-061>064-073>077-083>087-030200-
SOUTH CENTRAL NEBRASKA

CITY           SKY/WX    TMP DP  RH WIND       PRES   REMARKS
GRAND ISLAND   PTCLDY    84  67  56 SE5       29.83S
AURORA         PTCLDY    81  71  69 SE6       29.82S
HASTINGS       CLEAR     86  64  47 SE5       29.82F
HEBRON         PTCLDY    86  61  42 S7        29.83S
HOLDREGE       CLEAR     83  65  54 E7        29.83S
KEARNEY *      CLEAR     82  66  57 E5        29.83S
YORK           PTCLDY    82  72  69 S7        29.83R
$$

NEZ011>018-030>034-042>045-030200-
NORTHEAST NEBRASKA

CITY           SKY/WX    TMP DP  RH WIND       PRES   REMARKS
NORFOLK        CLEAR     80  71  74 SE5       29.82S
ALBION         CLEAR     80  70  71 SE5       29.83S
BLAIR          PTCLDY    82  70  67 SE7       29.84S
COLUMBUS *     PTCLDY    79  70  73 CALM      29.82S
FREMONT        PTCLDY    83  72  68 SE7       29.83S
TEKAMAH        PTCLDY    80  74  81 SE8       29.82S
WAYNE          CLEAR     78  74  86 S5        29.83S
$$

NEZ050>053-065>068-078-088>093-030200-
SOUTHEAST NEBRASKA

CITY           SKY/WX    TMP DP  RH WIND       PRES   REMARKS
LINCOLN        PTCLDY    85  68  56 S10       29.83S
OMAHA EPPLEY   MOCLDY    84  72  67 SE15      29.83S
BEATRICE       PTCLDY    84  68  57 S9        29.84R
FALLS CITY     PTCLDY    80  69  69 SE7       29.87R
NEBRASKA CITY  PTCLDY    80  66  62 S8        29.86S
PLATTSMOUTH    PTCLDY    81  70  69 SE7       29.86R
$$

NEZ044-045-051>053-067-030200-
OMAHA AREA

CITY           SKY/WX    TMP DP  RH WIND       PRES   REMARKS
OMAHA EPPLEY   MOCLDY    84  72  67 SE15      29.83S
BLAIR          PTCLDY    82  70  67 SE7       29.84S
FREMONT        PTCLDY    83  72  68 SE7       29.83S
MILLARD        PTCLDY    83  73  72 SE5       29.83S
OFFUTT AFB     PTCLDY    81  73  75 SE9       29.84R
PLATTSMOUTH    PTCLDY    81  70  69 SE7       29.86R
WAHOO          FAIR      80  73  80 SE7       29.83S
$$




USA.gov is the U.S. government's official web portal to all federal, state and local government web resources and services.